SCP
0 1 1 1 1 1 1 0 0 1 1 1 2 2 2 2 3 5 7 8 8 7 6 5 4 4 5 5 4 3 3 3 3 4 5 4 3 2 1 1 1 0 0 1
0 0 0 0 0 1 1 0 0 0 1 1 2 3 3 2 3 4 6 9 10 10 8 6 4 4 5 5 4 3 3 3 3 4 4 5 4 3 2 1 1 1 1 1
0 0 0 0 0 0 1 1 0 0 0 1 3 4 3 3 2 3 5 9 12 12 10 7 5 4 5 5 4 4 4 4 4 4 4 5 5 4 3 2 1 1 1 1
0 0 0 0 0 1 1 1 1 1 0 1 4 4 4 3 2 2 4 7 9 9 7 5 4 4 5 5 5 5 5 5 5 5 5 5 5 5 4 3 2 1 1 1
0 0 0 0 1 1 1 2 2 1 1 2 4 4 3 2 2 3 3 4 6 5 4 3 3 3 4 5 5 5 5 5 6 6 6 5 5 5 4 4 3 2 1 1
0 0 0 0 1 1 1 2 2 1 1 2 4 3 3 2 3 2 2 3 4 5 4 3 3 3 4 4 4 4 4 5 6 7 7 6 5 5 4 4 3 2 2 2
0 0 0 1 1 1 1 1 1 1 1 3 4 4 4 3 3 2 2 2 4 5 5 3 3 3 3 3 4 4 5 6 7 7 7 6 6 5 4 4 3 3 2 2
0 0 0 1 1 1 1 1 1 1 1 3 5 6 5 4 3 2 1 2 4 6 5 4 3 3 3 3 3 4 5 6 7 7 7 6 6 5 5 4 3 3 2 2
0 0 0 0 1 0 0 0 1 1 1 4 8 8 6 4 2 1 1 2 4 6 5 3 2 2 2 2 2 3 4 6 6 6 6 6 5 5 4 4 3 2 1 1
0 0 0 1 1 0 0 0 1 1 2 6 8 8 6 4 2 1 1 2 4 6 5 3 2 2 2 2 2 3 3 4 5 5 5 4 4 3 3 3 2 2 1 1
0 0 0 1 1 1 1 1 1 2 4 7 8 7 5 3 2 1 1 3 5 5 4 3 2 2 2 3 3 3 3 3 3 3 3 2 2 2 2 2 1 1 0 0
0 0 0 1 2 2 2 1 1 2 4 7 8 6 5 3 2 1 3 4 5 5 4 2 1 1 2 4 4 3 2 2 2 2 2 1 1 1 1 1 0 0 0 0
0 0 0 1 2 3 3 2 2 1 3 6 7 6 4 2 2 2 4 5 5 4 3 2 1 1 2 4 4 3 3 2 2 1 1 1 1 1 0 0 0 0 0 0
0 0 0 0 1 2 3 2 2 1 2 4 5 4 3 2 2 2 4 4 4 3 2 2 1 1 2 3 4 4 3 3 2 2 1 1 1 1 0 0 0 0 0 0
0 0 0 0 0 0 1 1 1 1 1 3 3 2 2 1 1 2 2 2 2 2 2 1 1 1 1 3 4 4 4 3 2 2 2 1 1 1 0 0 0 0 0 0
0 0 0 0 0 0 0 1 1 0 1 2 2 2 1 1 1 1 1 1 1 1 1 1 1 0 1 3 4 4 4 3 2 2 2 1 1 1 1 0 0 0 0 0
0 0 0 0 0 0 0 0 0 0 1 1 2 1 1 0 0 0 0 0 0 1 1 0 0 0 1 2 4 4 4 3 2 2 2 2 2 1 1 0 0 0 0 0
0 0 0 0 0 0 0 0 0 0 1 1 1 1 0 0 0 0 0 0 0 0 0 0 0 0 1 2 3 3 3 3 2 3 3 3 3 2 1 0 0 0 0 0
0 0 0 0 0 0 0 0 0 0 1 1 1 1 0 0 0 0 0 0 0 0 0 0 0 0 0 1 1 2 2 2 3 3 4 4 3 2 1 0 0 0 0 0
0 0 0 0 0 0 0 1 1 1 1 1 1 0 0 0 0 0 0 0 0 0 0 0 0 0 0 0 0 0 1 1 2 3 4 4 3 1 1 0 0 0 0 0
0 0 0 0 0 0 1 2 2 2 1 1 0 0 0 0 0 0 0 0 0 0 0 0 0 0 0 0 0 0 0 0 1 2 2 2 1 1 0 0 0 0 0 0
0 0 0 0 0 0 1 1 2 2 1 1 0 0 0 0 0 0 0 0 0 0 0 0 0 0 0 0 0 0 0 0 0 0 1 1 0 0 0 0 0 0 0 0
0 0 0 0 0 0 0 1 1 1 1 0 0 0 0 0 0 0 0 0 0 0 0 0 0 0 0 0 0 0 0 0 0 0 0 0 0 0 0 0 0 0 0 0
0 0 0 0 0 0 0 0 0 0 0 0 0 0 0 0 0 0 0 0 0 0 0 0 0 0 0 0 0 0 0 0 0 0 0 0 0 0 0 0 0 0 0 0
0 0 0 0 0 0 0 0 0 0 0 0 0 0 0 0 0 0 0 0 0 0 0 0 0 0 0 0 0 0 0 0 0 0 0 0 0 0 0 0 0 0 0 0
0 0 0 0 0 0 0 0 0 0 0 0 0 0 0 0 0 0 0 0 0 0 0 0 0 0 0 0 0 0 0 0 0 0 0 0 0 0 0 0 0 0 0 0
0 0 0 0 0 0 0 0 0 0 0 0 0 0 0 0 0 0 0 0 0 0 0 0 0 0 0 0 0 0 0 0 0 0 0 0 0 0 0 0 0 0 0 0
Wind_Speed
2 1 0 1 2 1 1 4 6 5 4 4 3 3 3 4 5 5 5 5 5 5 5 5 5 4 4 4 3 3 3 3 3 3 2 2 2 2 2 2 3 3 3 2
1 1 2 3 3 2 2 1 2 2 2 2 1 2 2 4 5 5 5 4 5 5 5 5 5 5 5 5 4 4 4 3 3 2 2 2 2 2 2 1 1 1 2 2
2 2 2 2 2 1 1 2 1 2 2 1 3 1 2 2 4 5 5 4 4 4 5 5 5 5 5 5 4 4 4 3 2 2 2 2 3 2 2 2 1 1 1 2
1 1 3 5 1 2 4 3 2 2 1 1 1 2 2 2 3 4 3 3 3 3 4 4 3 3 4 5 5 4 4 3 2 2 2 2 2 2 2 2 2 2 2 2
3 2 3 2 1 0 2 1 3 2 2 3 3 4 3 2 1 2 2 2 3 3 4 4 4 4 5 4 4 4 3 3 3 3 2 2 2 2 2 2 2 2 1 2
3 3 4 4 4 2 3 0 3 1 2 2 3 3 2 2 1 2 2 2 2 3 4 5 4 5 6 5 4 4 3 3 3 3 3 2 3 2 1 2 2 2 1 1
3 3 3 3 5 2 2 4 2 1 2 2 1 2 2 1 3 3 2 2 3 4 4 3 3 5 5 5 4 4 3 3 2 2 3 3 2 1 1 1 1 1 1 1
2 2 4 4 3 2 3 2 1 1 2 2 2 2 2 2 3 3 3 2 3 3 3 2 3 4 5 4 3 3 3 2 2 2 2 1 1 1 2 2 2 1 0 1
3 4 3 1 2 1 2 1 0 1 1 3 3 3 2 2 2 2 2 2 2 3 3 2 2 3 4 3 3 3 3 2 2 2 1 1 1 2 1 2 2 1 1 1
2 0 1 1 2 2 2 1 1 1 2 2 3 2 2 1 1 2 1 2 2 3 4 2 1 2 2 2 3 3 3 2 2 2 1 0 0 1 1 2 2 2 1 2
1 1 1 2 2 2 2 3 2 2 2 2 3 2 2 2 2 2 2 1 2 3 3 2 2 1 1 2 3 3 2 2 2 1 1 1 0 0 1 2 3 3 3 3
3 3 2 2 2 1 2 2 2 2 1 1 2 2 2 1 2 3 2 2 2 2 2 2 2 2 1 2 3 4 2 2 2 1 1 1 1 1 3 2 1 2 3 3
3 2 2 0 3 3 2 1 1 1 0 1 1 2 2 2 2 2 3 3 3 2 1 1 2 2 1 1 2 3 3 2 2 1 2 1 1 2 0 3 4 2 1 1
1 2 2 2 2 3 4 2 1 2 2 1 2 3 2 2 2 3 2 2 2 2 1 1 1 1 1 1 2 2 2 2 2 2 2 2 2 2 2 1 0 2 2 2
3 2 1 0 2 3 3 2 3 2 2 2 2 2 2 2 2 2 2 2 2 2 1 1 1 1 1 1 2 2 1 1 2 2 2 2 2 1 1 1 1 0 1 2
1 2 2 2 1 2 2 2 2 1 1 2 2 1 1 2 2 2 2 3 3 2 1 1 1 2 1 1 1 1 1 1 1 1 1 1 1 1 1 1 1 1 0 1
1 1 1 1 1 1 1 1 1 1 1 1 1 1 1 3 2 2 1 2 2 2 1 1 1 2 1 1 1 1 1 1 1 1 1 2 2 2 2 1 1 1 1 2
1 1 1 1 1 1 0 1 1 1 1 1 2 2 2 2 2 1 1 2 2 1 1 1 1 1 0 0 1 1 2 1 1 1 1 1 1 1 1 1 1 1 1 1
2 2 2 1 1 1 1 1 1 1 1 1 2 1 1 1 1 1 1 2 1 0 2 1 1 0 0 0 1 0 1 1 1 1 1 1 1 1 1 1 1 1 1 1
3 2 2 3 3 3 2 1 2 1 1 2 2 2 2 1 1 1 1 0 1 2 2 1 1 0 1 0 0 1 0 0 1 1 1 1 1 1 0 1 1 1 1 1
3 4 4 4 4 3 2 2 2 2 2 2 2 1 1 0 0 1 1 1 3 2 1 1 1 1 1 0 0 0 0 0 1 1 1 1 1 1 1 1 1 1 1 1
2 3 3 3 3 3 3 2 2 2 2 2 1 1 1 0 1 1 1 2 3 2 1 1 1 1 1 1 1 1 1 1 1 1 1 1 1 2 2 1 1 1 1 1
1 2 2 2 2 2 3 2 1 1 1 1 1 1 1 2 1 1 2 3 2 1 1 1 2 2 2 1 1 1 1 1 1 1 1 1 1 2 2 1 1 1 1 1
0 1 1 1 2 2 2 2 1 0 1 1 1 2 2 1 2 2 2 3 3 3 2 2 2 3 2 1 1 1 1 1 1 1 1 1 1 1 1 1 1 1 1 0
0 0 0 1 1 1 2 2 1 1 1 1 1 2 2 2 2 2 2 2 3 2 2 2 2 2 1 0 0 1 1 1 1 1 1 1 1 1 1 1 1 0 0 1
1 1 1 1 2 2 1 1 1 1 1 1 2 2 2 1 1 1 1 1 1 1 1 1 1 1 1 1 1 1 1 1 1 1 2 1 1 1 1 1 1 1 1 1
1 1 1 1 1 1 1 1 1 1 2 2 2 2 1 1 1 0 0 0 0 0 0 0 0 1 1 1 1 1 1 1 1 2 1 1 1 1 1 1 1 1 1 1
Wind_Direction
217 235 136 340 328 320 194 191 192 225 229 246 239 198 188 155 131 120 130 141 143 148 148 150 150 149 147 150 151 151 152 160 178 190 186 180 174 178 175 182 195 192 191 198
359 345 20 342 318 309 293 219 197 167 249 280 339 54 98 142 136 129 140 144 141 140 147 155 156 159 156 156 155 149 147 154 172 173 170 179 184 180 167 184 201 181 191 191
240 285 4 306 285 263 359 351 161 181 232 344 42 82 165 170 135 138 145 144 146 157 164 167 166 162 157 155 151 145 144 148 157 168 180 189 181 166 179 189 192 181 189 180
168 66 222 244 271 92 95 38 38 82 26 33 128 168 179 165 153 147 142 141 153 166 164 159 152 143 143 138 138 141 142 148 154 161 168 171 165 180 200 192 189 206 220 212
137 179 254 282 349 52 142 12 359 78 58 45 77 82 24 351 87 133 159 166 158 159 156 147 147 148 138 136 137 138 146 157 168 167 164 174 187 209 213 194 207 215 220 214
144 164 225 246 289 276 125 217 325 41 97 72 65 89 276 324 63 88 93 101 102 109 126 142 156 146 136 141 146 159 172 178 181 173 169 184 202 209 207 187 203 204 223 234
158 189 246 290 303 8 134 231 284 53 112 96 111 192 223 48 61 79 94 95 110 117 120 138 148 140 142 150 165 178 173 162 165 178 185 191 191 177 177 179 181 188 214 287
136 174 244 314 19 100 206 210 133 105 122 109 90 89 87 84 84 82 73 77 105 118 115 120 132 139 145 165 179 158 148 151 162 168 187 187 165 177 174 166 163 182 121 342
169 201 237 15 116 158 136 120 1 119 118 116 106 96 86 88 89 81 81 82 104 122 116 102 107 136 150 173 160 144 139 155 167 165 173 180 169 180 177 173 171 190 171 201
94 240 17 36 68 59 78 96 23 85 122 120 118 121 107 100 82 82 92 105 97 112 117 118 111 113 144 155 146 137 143 161 168 160 168 116 136 164 170 186 187 192 197 211
95 245 11 9 19 23 29 49 55 46 107 138 130 136 142 160 153 131 117 99 105 115 128 147 139 136 138 137 135 139 148 155 161 169 178 158 126 236 198 215 206 191 202 203
221 226 180 244 296 8 53 36 51 42 15 86 140 145 135 167 158 135 128 113 106 106 123 151 154 166 166 149 141 144 152 165 170 171 164 153 146 16 13 6 310 194 194 195
215 217 140 71 15 19 23 7 14 11 274 146 128 139 135 155 150 128 127 123 130 135 141 137 149 165 184 175 155 153 168 179 173 169 163 166 169 164 251 357 16 24 341 227
57 81 62 17 354 351 345 335 12 21 33 94 103 90 88 112 121 123 138 149 141 125 122 120 116 168 198 172 162 162 166 180 179 185 188 185 186 184 174 164 311 331 334 333
31 76 141 32 11 356 347 27 54 32 39 64 95 106 107 126 145 152 152 133 111 95 93 117 106 274 234 157 154 164 172 187 186 181 184 184 178 171 165 160 176 238 335 337
26 39 64 71 29 335 352 41 65 35 60 88 84 91 140 155 163 158 145 129 126 150 195 193 231 250 226 154 150 163 190 178 152 154 154 161 165 162 172 164 157 162 225 265
73 14 17 40 331 329 3 70 114 71 66 92 116 114 106 106 111 127 155 155 160 187 201 202 250 264 242 176 175 183 192 188 156 127 156 177 173 164 168 166 178 195 228 243
159 183 193 213 247 266 299 47 78 93 96 97 88 77 72 90 110 129 157 135 103 46 322 269 264 282 307 304 216 186 174 177 184 187 175 171 173 174 169 172 196 215 247 274
59 66 45 31 26 122 116 44 41 96 99 100 99 97 93 96 125 138 122 108 118 231 283 274 243 164 133 345 351 157 171 189 194 185 160 155 161 182 163 170 191 193 175 159
44 44 44 37 42 55 59 62 83 99 96 100 93 74 60 46 73 87 84 84 239 242 247 242 230 226 216 288 55 103 107 225 209 199 171 162 174 171 158 167 169 168 163 178
47 46 40 35 32 34 43 62 79 88 89 95 99 109 122 314 67 99 94 303 295 289 271 250 255 264 249 223 152 141 113 230 230 204 187 184 178 182 187 183 178 175 187 214
36 39 37 34 26 9 2 21 77 95 99 98 108 125 113 314 312 321 256 241 268 279 275 273 252 250 246 239 196 190 197 185 225 199 189 194 190 193 193 190 205 211 217 229
41 36 30 19 12 356 353 4 44 99 123 142 164 192 217 238 226 214 278 282 280 270 274 280 281 274 274 274 219 200 212 202 195 193 199 199 197 191 190 193 203 205 211 244
32 43 14 355 7 13 353 323 330 322 187 191 208 213 216 238 274 262 243 256 260 260 264 267 278 290 299 295 216 183 210 215 198 184 174 167 167 167 171 186 202 210 199 223
259 271 337 23 19 305 280 291 324 316 299 280 271 265 252 220 226 253 260 258 250 248 262 249 228 232 247 266 200 186 200 199 170 150 132 129 149 160 173 175 175 173 171 229
277 255 239 225 220 242 251 248 259 259 251 258 275 274 274 272 257 249 250 248 245 258 272 260 210 194 190 193 192 181 183 169 143 140 141 135 149 165 165 163 164 174 201 236
314 301 304 315 294 268 239 223 230 240 231 223 250 270 267 258 245 241 330 348 274 275 305 343 108 137 166 199 172 157 144 130 124 126 132 140 155 173 176 160 163 158 191 211